Location: Kitchener-Waterloo
(43.4500°N, 80.5000°W)
Time: 19:15:08
(UTC-05:00)

Amateur Radio Satellites - All Passes

Search period start: 24 February 2017 18:45
Search period end: 25 February 2017 18:45
Location: Kitchener-Waterloo, 43.4500°N, 80.5000°W

Satellite Date Start Highest point End Downlink Frequencies (MHz)
Time Altitude Azimuth
CUBESAT XI-V 24 Feb 18:47:14 18:49:41 14° 299° (WNW) 18:52:10 437.345
XW-2A 24 Feb 18:48:08 18:51:32 81° 76° (ENE) 18:54:58 145.665 - 145.685
STRAND 1 24 Feb 18:49:23 18:53:15 21° 92° (E) 18:57:05 437.568
CUTE-I 24 Feb 18:51:23 18:55:51 27° 266° (W) 19:00:21 437.470
NUDT-PHONESAT 24 Feb 18:56:24 18:58:46 16° 268° (W) 19:01:08 437.300
LilacSat-2 24 Feb 18:57:55 18:59:45 13° 269° (W) 19:01:36 437.200
NO-84 24 Feb 19:02:17 19:05:17 28° 335° (NNW) 19:08:33 435.350 FM
CUTE 1.7 + AOD 2 24 Feb 19:04:34 19:08:51 79° 77° (ENE) 19:13:09 437.475
STARS 24 Feb 19:04:39 19:06:30 13° 300° (WNW) 19:08:22 437.465
HO-68 24 Feb 19:12:19 19:19:30 82° 254° (WSW) 19:26:44 435.675
CUBEBUG 2 24 Feb 19:13:58 19:18:11 45° 71° (ENE) 19:22:33 437.445
AO-73 24 Feb 19:29:44 19:33:19 24° 66° (ENE) 19:36:58 145.935
Oscar 11 24 Feb 19:37:37 19:41:09 25° 67° (ENE) 19:44:43 .
YUBILEINY 24 Feb 19:46:08 19:50:55 15° 56° (NE) 19:55:40 435.215
UWE-3 24 Feb 19:52:55 19:57:21 73° 75° (ENE) 20:01:56 435.000/436.395/437.385
AAUSAT CUBESAT 2 24 Feb 19:55:18 19:59:28 86° 257° (WSW) 20:03:38 437.432
DELFI C3 24 Feb 20:02:32 20:04:35 14° 64° (ENE) 20:06:37 145.870
SEEDS 24 Feb 20:04:01 20:07:53 34° 263° (W) 20:11:47 437.485
ZACube-1 24 Feb 20:15:49 20:20:15 77° 74° (ENE) 20:24:49 437.345
STRAND 1 24 Feb 20:27:42 20:32:42 50° 290° (WNW) 20:37:38 437.568
NO-84 24 Feb 20:41:49 20:44:01 15° 357° (N) 20:46:19 435.350 FM
CUBEBUG 2 24 Feb 20:51:57 20:55:03 18° 269° (W) 20:58:14 437.445
RS-15 24 Feb 20:53:47 21:04:32 34° 335° (NNW) 21:15:28 29.354- 29.394
HO-68 24 Feb 21:04:34 21:08:16 15° 273° (W) 21:11:57 435.675
AO-73 24 Feb 21:05:16 21:09:21 35° 264° (W) 21:13:32 145.935
Oscar 11 24 Feb 21:13:14 21:17:09 32° 264° (W) 21:21:05 .
SO-50 24 Feb 21:17:41 21:18:48 11° 107° (ESE) 21:19:55 436.795
ESTCUBE 1 24 Feb 21:31:22 21:32:58 12° 60° (ENE) 21:34:34 437.505/2401.250
UWE-3 24 Feb 21:32:53 21:34:21 11° 273° (W) 21:35:50 435.000/436.395/437.385
DELFI C3 24 Feb 21:35:05 21:38:57 52° 260° (W) 21:42:50 145.870
YUBILEINY 24 Feb 21:40:49 21:49:34 71° 79° (E) 21:58:13 435.215
UNISAT 6 24 Feb 21:50:34 21:54:40 29° 95° (E) 21:58:42 437.425
TIGRISAT 24 Feb 21:51:09 21:55:10 27° 95° (E) 21:59:08 435.000
PRISM 24 Feb 21:53:40 21:57:45 70° 103° (ESE) 22:01:48 437.425
ZACube-1 24 Feb 21:56:00 21:57:06 11° 273° (W) 21:58:12 437.345
O/OREOS (USA 219) 24 Feb 22:02:52 22:05:35 16° 99° (E) 22:08:19 437.305
NO-84 24 Feb 22:19:54 22:22:54 20° 18° (NNE) 22:26:03 435.350 FM
LO-87 24 Feb 22:31:10 22:34:41 88° 73° (ENE) 22:38:15 145.935 - 145.965
FO-29 24 Feb 22:51:43 22:59:18 58° 99° (E) 23:06:10 435.910
SO-50 24 Feb 22:53:52 22:58:33 89° 141° (SE) 23:03:12 436.795
EO-79 24 Feb 23:00:01 23:02:04 13° 90° (E) 23:04:06 145.935-145.965
50 SAT 24 Feb 23:03:44 23:06:13 19° 67° (ENE) 23:08:43 437.505
ESTCUBE 1 24 Feb 23:04:35 23:09:06 82° 256° (WSW) 23:13:39 437.505/2401.250
RS-15 24 Feb 23:11:58 23:22:08 28° 10° (N) 23:32:11 29.354- 29.394
POLYITAN 1 24 Feb 23:16:22 23:19:35 20° 93° (E) 23:22:45 437.675
NANOSAT C BR1 24 Feb 23:16:38 23:19:38 18° 93° (E) 23:22:38 145.865
QB50P2 24 Feb 23:19:07 23:22:34 23° 94° (E) 23:25:58 145.880/145.840
UNISAT 6 24 Feb 23:27:10 23:31:19 31° 292° (WNW) 23:35:26 437.425
DX 1 24 Feb 23:27:23 23:31:02 27° 67° (ENE) 23:34:42 434.975-435.025
TIGRISAT 24 Feb 23:27:38 23:31:51 33° 292° (WNW) 23:36:01 435.000
PRISM 24 Feb 23:31:07 23:32:28 11° 299° (WNW) 23:33:49 437.425
PCSat 24 Feb 23:31:35 23:34:04 13° 33° (NNE) 23:36:33 145.827
VELOX 1 24 Feb 23:32:53 23:37:14 68° 74° (ENE) 23:41:37 145.980
AIST 2D 24 Feb 23:33:03 23:36:32 50° 99° (E) 23:39:59 435.315
YUBILEINY 24 Feb 23:38:48 23:45:30 26° 280° (W) 23:52:11 435.215
O/OREOS (USA 219) 24 Feb 23:40:10 23:44:31 52° 297° (WNW) 23:48:56 437.305
UKube-1 24 Feb 23:40:47 23:44:25 27° 67° (ENE) 23:48:03 .
SPROUT 24 Feb 23:45:48 23:50:01 74° 76° (ENE) 23:54:18 437.525
BUGSAT 1 24 Feb 23:49:41 23:51:48 13° 91° (E) 23:53:54 437.445
NO-84 24 Feb 23:57:07 00:01:12 65° 37° (NE) 00:05:31 435.350 FM
DUCHIFAT 1 25 Feb 00:23:48 00:28:06 90° 290° (WNW) 00:32:21 145.980
Oscar 19 25 Feb 00:32:23 00:34:28 12° 88° (E) 00:36:33 437.125/150
EO-79 25 Feb 00:33:58 00:38:11 58° 287° (WNW) 00:42:24 145.935-145.965
50 SAT 25 Feb 00:36:09 00:39:10 27° 263° (W) 00:42:13 437.505
SO-50 25 Feb 00:36:38 00:39:39 17° 323° (NW) 00:42:39 436.795
FO-29 25 Feb 00:37:13 00:43:50 33° 299° (WNW) 00:50:01 435.910
POLYITAN 1 25 Feb 00:51:30 00:55:29 38° 290° (WNW) 00:59:27 437.675
NANOSAT C BR1 25 Feb 00:51:30 00:55:31 41° 289° (WNW) 00:59:32 145.865
QB50P2 25 Feb 00:54:32 00:58:24 33° 291° (WNW) 01:02:14 145.880/145.840
DX 1 25 Feb 01:03:23 01:07:08 29° 264° (W) 01:10:54 434.975-435.025
ITUPSAT 1 25 Feb 01:06:14 01:09:28 18° 62° (ENE) 01:12:43 437.325
AIST 2D 25 Feb 01:08:05 01:09:20 12° 296° (WNW) 01:10:35 435.315
Gurwin Techsat 1B 25 Feb 01:11:35 01:15:03 17° 91° (E) 01:18:29 435.225
VELOX 1 25 Feb 01:12:35 01:14:09 12° 270° (W) 01:15:43 145.980
BEESAT 25 Feb 01:12:49 01:16:23 21° 63° (ENE) 01:19:57 436.000
PCSat 25 Feb 01:13:20 01:18:42 56° 55° (NE) 01:24:02 145.827
UKube-1 25 Feb 01:16:39 01:20:22 28° 264° (W) 01:24:07 .
BUGSAT 1 25 Feb 01:23:19 01:27:29 57° 287° (WNW) 01:31:39 437.445
SPROUT 25 Feb 01:26:10 01:26:27 10° 272° (W) 01:26:44 437.525
RS-15 25 Feb 01:26:24 01:38:28 53° 42° (NE) 01:50:03 29.354- 29.394
NO-84 25 Feb 01:35:25 01:38:39 21° 232° (SW) 01:42:00 435.350 FM
MOZHAYETS 4 25 Feb 01:39:53 01:42:12 14° 61° (ENE) 01:44:30
Oscar 19 25 Feb 02:09:16 02:14:25 82° 285° (WNW) 02:19:32 437.125/150
ITUPSAT 1 25 Feb 02:42:08 02:46:51 57° 259° (W) 02:51:37 437.325
ITAMSAT 1 25 Feb 02:42:35 02:46:35 22° 93° (E) 02:50:32 435.822/435.867
BEESAT 25 Feb 02:49:13 02:53:50 47° 261° (W) 02:58:28 436.000
Gurwin Techsat 1B 25 Feb 02:50:09 02:55:26 64° 288° (WNW) 03:00:41 435.225
PCSat 25 Feb 02:57:34 03:01:41 22° 253° (WSW) 03:05:46 145.827
MOZHAYETS 4 25 Feb 03:14:07 03:18:45 73° 258° (WSW) 03:23:26
M-CUBED/EXP-1 PRIME 25 Feb 03:27:42 03:29:03 12° 59° (ENE) 03:30:24 437.505
RS-15 25 Feb 03:39:23 03:51:13 57° 247° (WSW) 04:02:34 29.354- 29.394
AO-7 25 Feb 03:45:09 03:53:18 54° 102° (ESE) 04:01:21 .
KKS-1 25 Feb 03:48:25 03:52:49 71° 73° (ENE) 03:57:15 437.445
Oscar 19 25 Feb 03:51:06 03:52:53 12° 304° (WNW) 03:54:41 437.125/150
CUBESAT XI-V 25 Feb 04:12:15 04:16:55 74° 75° (ENE) 04:21:34 437.345
ITAMSAT 1 25 Feb 04:21:15 04:26:19 50° 290° (WNW) 04:31:20 435.822/435.867
STARS 25 Feb 04:23:40 04:28:01 76° 75° (ENE) 04:32:25 437.465
AO-85 25 Feb 04:36:38 04:41:08 64° 121° (ESE) 04:45:20 145.980
M-CUBED/EXP-1 PRIME 25 Feb 05:00:06 05:03:14 40° 255° (WSW) 05:06:20 437.505
CUTE-I 25 Feb 05:27:49 05:30:47 15° 89° (E) 05:33:45 437.470
KKS-1 25 Feb 05:28:26 05:29:52 11° 271° (W) 05:31:18 437.445
AO-7 25 Feb 05:38:21 05:45:47 38° 302° (WNW) 05:53:11 .
SO-50 25 Feb 05:44:39 05:47:47 18° 38° (NE) 05:50:52 436.795
KAITUO 1B 25 Feb 05:49:48 05:52:20 17° 92° (E) 05:54:50 145.475/437.950
CUBESAT XI-V 25 Feb 05:53:02 05:54:48 12° 271° (W) 05:56:33 437.345
XW-2F 25 Feb 05:53:34 05:56:36 22° 94° (E) 05:59:37 145.980 - 146.000
XW-2D 25 Feb 05:57:48 06:01:06 26° 96° (E) 06:04:20 145.860 - 145.880
RS-15 25 Feb 05:57:54 06:00:38 11° 269° (W) 06:03:23 29.354- 29.394
BEESAT 3 25 Feb 05:59:54 06:03:12 27° 114° (ESE) 06:06:32 437.485
XW-2B 25 Feb 06:02:46 06:06:10 29° 96° (E) 06:09:31 145.730 - 145.750
STARS 25 Feb 06:04:12 06:04:54 10° 271° (W) 06:05:35 437.465
STRAND 1 25 Feb 06:06:04 06:10:39 34° 67° (ENE) 06:15:17 437.568
DOVE 4 25 Feb 06:06:45 06:11:13 42° 98° (E) 06:15:56 437.250
XW-2C 25 Feb 06:11:15 06:14:51 37° 98° (E) 06:18:23 145.795 - 145.815
AO-85 25 Feb 06:18:48 06:21:53 18° 318° (NW) 06:24:51 145.980
NUDT-PHONESAT 25 Feb 06:24:18 06:27:55 43° 99° (E) 06:31:30 437.300
LilacSat-2 25 Feb 06:27:35 06:31:26 63° 101° (ESE) 06:35:13 437.200
BEESAT 2 25 Feb 06:37:20 06:40:44 28° 115° (ESE) 06:44:10 435.950
HO-68 25 Feb 06:40:19 06:44:56 18° 89° (E) 06:49:31 435.675
CUTE 1.7 + AOD 2 25 Feb 06:50:11 06:51:58 12° 89° (E) 06:53:44 437.475
CUTE-I 25 Feb 07:06:01 07:11:24 75° 286° (WNW) 07:16:45 437.470
KAITUO 1B 25 Feb 07:23:02 07:26:28 34° 289° (WNW) 07:29:52 145.475/437.950
SO-50 25 Feb 07:24:15 07:28:46 76° 239° (WSW) 07:33:14 436.795
XW-2F 25 Feb 07:27:30 07:30:44 26° 291° (WNW) 07:33:56 145.980 - 146.000
XW-2D 25 Feb 07:32:08 07:35:10 23° 292° (WNW) 07:38:11 145.860 - 145.880
BEESAT 3 25 Feb 07:37:12 07:40:42 30° 313° (NW) 07:44:16 437.485
XW-2B 25 Feb 07:37:17 07:40:11 21° 293° (WNW) 07:43:04 145.730 - 145.750
AAUSAT CUBESAT 2 25 Feb 07:37:50 07:39:52 13° 90° (E) 07:41:53 437.432
XW-2A 25 Feb 07:41:38 07:45:05 74° 99° (E) 07:48:33 145.665 - 145.685
UWE-3 25 Feb 07:42:44 07:45:25 15° 89° (E) 07:48:03 435.000/436.395/437.385
DOVE 4 25 Feb 07:45:02 07:48:41 23° 293° (WNW) 07:52:31 437.250
STRAND 1 25 Feb 07:45:17 07:49:49 31° 264° (W) 07:54:24 437.568
XW-2C 25 Feb 07:46:15 07:48:46 17° 294° (WNW) 07:51:14 145.795 - 145.815
SEEDS 25 Feb 07:46:22 07:50:11 33° 97° (E) 07:53:57 437.485
ISS 25 Feb 07:58:41 08:01:38 31° 139° (SE) 08:04:37 437.550
NUDT-PHONESAT 25 Feb 07:59:24 08:01:29 14° 295° (WNW) 08:03:34 437.300
LilacSat-2 25 Feb 08:04:03 08:05:10 11° 298° (WNW) 08:06:18 437.200
ZACube-1 25 Feb 08:04:27 08:07:01 15° 89° (E) 08:09:31 437.345
O/OREOS (USA 219) 25 Feb 08:09:41 08:14:00 39° 60° (ENE) 08:18:18 437.305
BEESAT 2 25 Feb 08:14:55 08:18:27 30° 313° (NW) 08:22:01 435.950
CUTE 1.7 + AOD 2 25 Feb 08:24:01 08:28:11 59° 286° (WNW) 08:32:19 437.475
Tancredo 1 25 Feb 08:24:39 08:27:52 58° 143° (SE) 08:31:05 437.200
HO-68 25 Feb 08:26:18 08:33:29 86° 289° (WNW) 08:40:39 435.675
CUBEBUG 2 25 Feb 08:39:37 08:44:26 88° 100° (E) 08:49:10 437.445
PRISM 25 Feb 08:43:43 08:47:43 57° 73° (ENE) 08:51:43 437.425
CUTE-I 25 Feb 08:48:44 08:50:31 12° 305° (NW) 08:52:18 437.470
UNISAT 6 25 Feb 08:50:22 08:54:14 29° 67° (ENE) 08:58:12 437.425
TIGRISAT 25 Feb 08:50:50 08:54:38 27° 67° (ENE) 08:58:30 435.000
YUBILEINY 25 Feb 08:51:21 08:56:00 16° 74° (ENE) 09:00:38 435.215
AO-73 25 Feb 08:51:44 08:56:03 41° 98° (E) 09:00:16 145.935
Oscar 11 25 Feb 08:58:46 09:02:53 41° 98° (E) 09:06:57 .
FO-29 25 Feb 09:04:17 09:10:33 32° 60° (ENE) 09:17:12 435.910
AAUSAT CUBESAT 2 25 Feb 09:11:38 09:15:39 52° 287° (WNW) 09:19:38 437.432
DELFI C3 25 Feb 09:11:52 09:14:30 17° 92° (E) 09:17:07 145.870
UWE-3 25 Feb 09:17:38 09:22:15 60° 287° (WNW) 09:26:47 435.000/436.395/437.385
SEEDS 25 Feb 09:22:28 09:25:40 22° 294° (WNW) 09:28:51 437.485
ISS 25 Feb 09:34:54 09:38:03 40° 336° (NNW) 09:41:12 437.550
ZACube-1 25 Feb 09:39:10 09:43:40 58° 287° (WNW) 09:48:05 437.345
O/OREOS (USA 219) 25 Feb 09:49:36 09:53:10 23° 258° (WSW) 09:56:44 437.305
EO-79 25 Feb 09:54:13 09:55:57 12° 61° (ENE) 09:57:44 145.935-145.965
Tancredo 1 25 Feb 10:01:25 10:04:19 28° 341° (NNW) 10:07:12 437.200
AIST 2D 25 Feb 10:08:58 10:11:47 22° 69° (ENE) 10:14:36 435.315
NANOSAT C BR1 25 Feb 10:10:13 10:12:55 17° 63° (ENE) 10:15:37 145.865
POLYITAN 1 25 Feb 10:10:20 10:13:16 18° 64° (ENE) 10:16:12 437.675
QB50P2 25 Feb 10:13:02 10:16:11 21° 65° (ENE) 10:19:21 145.880/145.840
HO-68 25 Feb 10:15:34 10:20:13 19° 307° (NW) 10:24:52 435.675
CUBEBUG 2 25 Feb 10:18:29 10:20:18 12° 301° (WNW) 10:22:06 437.445
PRISM 25 Feb 10:21:40 10:23:21 12° 269° (W) 10:25:02 437.425
UNISAT 6 25 Feb 10:26:55 10:30:52 30° 265° (W) 10:34:56 437.425
TIGRISAT 25 Feb 10:27:10 10:31:11 32° 264° (W) 10:35:19 435.000
AO-73 25 Feb 10:28:32 10:31:59 22° 295° (WNW) 10:35:23 145.935
Oscar 11 25 Feb 10:35:36 10:38:44 20° 295° (WNW) 10:41:50 .
BUGSAT 1 25 Feb 10:41:39 10:42:57 11° 60° (ENE) 10:44:15 437.445
YUBILEINY 25 Feb 10:42:27 10:51:15 78° 95° (E) 11:00:04 435.215
DELFI C3 25 Feb 10:45:49 10:49:26 36° 289° (WNW) 10:53:02 145.870
FO-29 25 Feb 10:48:02 10:55:02 60° 261° (W) 11:02:44 435.910
ESTCUBE 1 25 Feb 10:56:44 10:59:56 19° 93° (E) 11:03:06 437.505/2401.250
ISS 25 Feb 11:12:38 11:15:08 20° 356° (N) 11:17:38 437.550
DUCHIFAT 1 25 Feb 11:16:13 11:20:24 75° 76° (ENE) 11:24:40 145.980
VELOX 1 25 Feb 11:23:50 11:25:23 12° 89° (E) 11:26:56 145.980
EO-79 25 Feb 11:26:57 11:31:09 69° 259° (WSW) 11:35:24 145.935-145.965
AO-85 25 Feb 11:28:35 11:29:39 11° 34° (NE) 11:30:43 145.980
LO-87 25 Feb 11:30:20 11:33:56 86° 284° (WNW) 11:37:33 145.935 - 145.965
SPROUT 25 Feb 11:32:27 11:33:59 12° 89° (E) 11:35:32 437.525
Tancredo 1 25 Feb 11:38:55 11:41:19 19° 2° (N) 11:43:44 437.200
AIST 2D 25 Feb 11:42:00 11:44:55 23° 265° (W) 11:47:50 435.315
NANOSAT C BR1 25 Feb 11:44:10 11:48:14 48° 261° (W) 11:52:21 145.865
POLYITAN 1 25 Feb 11:44:40 11:48:43 43° 261° (W) 11:52:49 437.675
QB50P2 25 Feb 11:47:47 11:51:43 37° 262° (W) 11:55:43 145.880/145.840
Oscar 19 25 Feb 11:49:31 11:53:26 22° 63° (ENE) 11:57:21 437.125/150
50 SAT 25 Feb 12:00:09 12:02:26 16° 93° (E) 12:04:42 437.505
BUGSAT 1 25 Feb 12:13:40 12:17:42 71° 258° (WSW) 12:21:50 437.445
ESTCUBE 1 25 Feb 12:32:41 12:36:56 43° 289° (WNW) 12:41:09 437.505/2401.250
Gurwin Techsat 1B 25 Feb 12:33:21 12:37:59 32° 66° (ENE) 12:42:38 435.225
YUBILEINY 25 Feb 12:42:11 12:49:03 25° 297° (WNW) 12:55:56 435.215
ISS 25 Feb 12:49:31 12:52:22 26° 16° (NNE) 12:55:12 437.550
DX 1 25 Feb 12:49:36 12:53:45 42° 99° (E) 12:57:53 434.975-435.025
AO-7 25 Feb 12:56:09 13:01:49 21° 48° (NE) 13:07:28 .
VELOX 1 25 Feb 12:57:54 13:02:18 69° 286° (WNW) 13:06:42 145.980
UKube-1 25 Feb 13:01:46 13:05:51 40° 99° (E) 13:09:56 .
SPROUT 25 Feb 13:06:03 13:10:20 66° 286° (WNW) 13:14:37 437.525
AO-85 25 Feb 13:06:52 13:10:47 71° 55° (NE) 13:14:43 145.980
Tancredo 1 25 Feb 13:15:16 13:18:16 33° 21° (NNE) 13:21:15 437.200
Oscar 19 25 Feb 13:27:25 13:32:25 50° 260° (W) 13:37:25 437.125/150
50 SAT 25 Feb 13:32:34 13:35:37 29° 290° (WNW) 13:38:39 437.505
ITAMSAT 1 25 Feb 14:01:21 14:06:06 38° 67° (ENE) 14:10:54 435.822/435.867
Gurwin Techsat 1B 25 Feb 14:12:59 14:17:50 36° 263° (W) 14:22:44 435.225
BEESAT 3 25 Feb 14:15:15 14:18:41 26° 46° (NE) 14:22:06 437.485
ISS 25 Feb 14:25:48 14:29:05 75° 215° (SW) 14:32:21 437.550
DX 1 25 Feb 14:26:31 14:29:39 20° 296° (WNW) 14:32:48 434.975-435.025
UKube-1 25 Feb 14:38:28 14:41:37 20° 296° (WNW) 14:44:46 .
ITUPSAT 1 25 Feb 14:41:34 14:45:54 33° 97° (E) 14:50:12 437.325
AO-7 25 Feb 14:44:59 14:53:21 79° 69° (ENE) 15:01:43 .
BEESAT 25 Feb 14:47:59 14:52:30 39° 98° (E) 14:56:56 436.000
AO-85 25 Feb 14:50:05 14:50:35 10° 251° (WSW) 14:51:06 145.980
Tancredo 1 25 Feb 14:51:33 14:54:36 40° 219° (SW) 14:57:37 437.200
BEESAT 2 25 Feb 14:53:36 14:57:07 27° 46° (NE) 15:00:37 435.950
MOZHAYETS 4 25 Feb 15:08:30 15:12:14 24° 94° (E) 15:15:55
KKS-1 25 Feb 15:40:02 15:41:55 12° 90° (E) 15:43:47 437.445
ITAMSAT 1 25 Feb 15:41:09 15:45:37 29° 265° (W) 15:50:09 435.822/435.867
BEESAT 3 25 Feb 15:52:41 15:56:20 34° 244° (WSW) 15:59:57 437.485
RS-15 25 Feb 15:54:16 16:02:54 24° 99° (E) 16:11:43 29.354- 29.394
PCSat 25 Feb 15:56:12 16:01:12 40° 112° (ESE) 16:06:15 145.827
CUBESAT XI-V 25 Feb 16:08:45 16:11:41 16° 91° (E) 16:14:35 437.345
STARS 25 Feb 16:13:38 16:15:34 13° 90° (E) 16:17:30 437.465
ITUPSAT 1 25 Feb 16:19:31 16:23:37 29° 294° (WNW) 16:27:42 437.325
BEESAT 25 Feb 16:26:12 16:30:03 25° 295° (WNW) 16:33:54 436.000
BEESAT 2 25 Feb 16:31:16 16:34:55 32° 244° (WSW) 16:38:31 435.950
KAITUO 1B 25 Feb 16:32:48 16:33:43 11° 62° (ENE) 16:34:39 145.475/437.950
XW-2F 25 Feb 16:36:33 16:38:39 14° 64° (ENE) 16:40:45 145.980 - 146.000
AO-7 25 Feb 16:40:36 16:46:55 23° 268° (W) 16:53:16 .
XW-2D 25 Feb 16:40:51 16:43:21 17° 66° (ENE) 16:45:52 145.860 - 145.880
MOZHAYETS 4 25 Feb 16:45:15 16:49:29 36° 291° (WNW) 16:53:39
XW-2B 25 Feb 16:45:41 16:48:22 18° 66° (ENE) 16:51:04 145.730 - 145.750
CUTE-I 25 Feb 16:50:08 16:54:37 28° 64° (ENE) 16:59:08 437.470
XW-2C 25 Feb 16:53:54 16:56:57 23° 68° (ENE) 17:00:02 145.795 - 145.815
NO-84 25 Feb 16:54:19 16:57:17 36° 132° (SE) 17:00:30 435.350 FM
NUDT-PHONESAT 25 Feb 17:05:04 17:08:09 24° 68° (ENE) 17:11:14 437.300
LilacSat-2 25 Feb 17:10:22 17:13:56 36° 71° (ENE) 17:17:31 437.200
HO-68 25 Feb 17:11:34 17:15:57 18° 52° (NE) 17:20:21 435.675
DOVE 4 25 Feb 17:13:51 17:17:45 42° 71° (ENE) 17:21:43 437.250
KKS-1 25 Feb 17:14:28 17:18:55 67° 286° (WNW) 17:23:21 437.445
PCSat 25 Feb 17:39:45 17:44:39 34° 311° (NW) 17:49:36 145.827
CUTE 1.7 + AOD 2 25 Feb 17:44:44 17:46:12 12° 61° (ENE) 17:47:39 437.475
CUBESAT XI-V 25 Feb 17:44:54 17:49:22 52° 288° (WNW) 17:53:49 437.345
STARS 25 Feb 17:47:56 17:52:20 65° 287° (WNW) 17:56:43 437.465
RS-15 25 Feb 18:01:36 18:13:35 87° 120° (ESE) 18:26:02 29.354- 29.394
KAITUO 1B 25 Feb 18:03:26 18:07:13 65° 260° (W) 18:11:02 145.475/437.950
XW-2F 25 Feb 18:08:42 18:12:24 46° 261° (W) 18:16:09 145.980 - 146.000
M-CUBED/EXP-1 PRIME 25 Feb 18:10:25 18:14:11 82° 289° (WNW) 18:18:16 437.505
XW-2D 25 Feb 18:13:38 18:17:15 38° 262° (W) 18:20:53 145.860 - 145.880
XW-2A 25 Feb 18:14:18 18:17:15 28° 70° (ENE) 18:20:13 145.665 - 145.685
XW-2B 25 Feb 18:18:47 18:22:20 35° 263° (W) 18:25:53 145.730 - 145.750
XW-2C 25 Feb 18:27:43 18:31:02 27° 264° (W) 18:34:23 145.795 - 145.815
CUTE-I 25 Feb 18:29:27 18:34:28 41° 262° (W) 18:39:32 437.470
AAUSAT CUBESAT 2 25 Feb 18:30:05 18:31:29 11° 62° (ENE) 18:32:51 437.432
NO-84 25 Feb 18:31:56 18:34:58 31° 333° (NNW) 18:38:17 435.350 FM
